• Em Portugal
  • Lista de países
  • Para 7 dias
  • Temperatura da água
  • Mapas de satélite
  • Mapa do tempo
  • Widgets de tempo
  • user-avatar
    Iniciar Sessão

    Previsão horária em Dhalkuta

    Hoje, 20 Outubro, Sexta-feira

    Tempo Temperatura Precipitação Vento Pressão Humidade
    00:00 +27°C° 0 mm 3 m/s 751 mmHg 63%
    01:00 +26°C° 0,1 mm 3 m/s 751 mmHg 62%
    02:00 +26°C° 0,1 mm 3 m/s 751 mmHg 61%
    03:00 +26°C° 0,1 mm 3 m/s 750 mmHg 60%
    04:00 +26°C° 0 mm 3 m/s 750 mmHg 58%
    05:00 +26°C° 0 mm 2 m/s 750 mmHg 57%
    06:00 +26°C° 0 mm 2 m/s 750 mmHg 58%
    07:00 +27°C° 0 mm 2 m/s 750 mmHg 56%
    08:00 +29°C° 0 mm 3 m/s 750 mmHg 54%
    09:00 +31°C° 0 mm 3 m/s 751 mmHg 51%
    10:00 +32°C° 0 mm 4 m/s 751 mmHg 52%
    11:00 +33°C° 0 mm 5 m/s 751 mmHg 53%
    12:00 +34°C° 0 mm 6 m/s 750 mmHg 56%
    13:00 +33°C° 0,1 mm 5 m/s 750 mmHg 61%
    14:00 +32°C° 0,1 mm 5 m/s 750 mmHg 65%
    15:00 +32°C° 0,1 mm 5 m/s 749 mmHg 70%
    16:00 +30°C° 0,1 mm 5 m/s 749 mmHg 75%
    17:00 +28°C° 0,1 mm 5 m/s 749 mmHg 80%
    18:00 +27°C° 0 mm 4 m/s 749 mmHg 85%
    19:00 +27°C° 0 mm 4 m/s 749 mmHg 85%
    20:00 +27°C° 0 mm 5 m/s 750 mmHg 86%
    21:00 +27°C° 0 mm 5 m/s 750 mmHg 86%
    22:00 +27°C° 0,1 mm 5 m/s 750 mmHg 85%
    23:00 +27°C° 0,1 mm 5 m/s 750 mmHg 85%

    Amanhã, 21 Outubro, Sábado

    Tempo Temperatura Precipitação Vento Pressão Humidade
    00:00 +26°C° 0,1 mm 5 m/s 749 mmHg 85%
    01:00 +26°C° 0,2 mm 4 m/s 749 mmHg 85%
    02:00 +26°C° 0,2 mm 4 m/s 748 mmHg 85%
    03:00 +26°C° 0,2 mm 4 m/s 748 mmHg 86%
    04:00 +26°C° 0,1 mm 4 m/s 747 mmHg 86%
    05:00 +26°C° 0,1 mm 4 m/s 747 mmHg 85%
    06:00 +26°C° 0,1 mm 4 m/s 747 mmHg 85%
    07:00 +27°C° 0 mm 3 m/s 747 mmHg 81%
    08:00 +28°C° 0 mm 3 m/s 747 mmHg 77%
    09:00 +29°C° 0 mm 3 m/s 748 mmHg 73%
    10:00 +29°C° 0,1 mm 3 m/s 747 mmHg 70%
    11:00 +30°C° 0,1 mm 3 m/s 747 mmHg 68%
    12:00 +31°C° 0,1 mm 3 m/s 747 mmHg 65%
    13:00 +31°C° 0,1 mm 3 m/s 747 mmHg 65%
    14:00 +31°C° 0,1 mm 2 m/s 746 mmHg 64%
    15:00 +31°C° 0,1 mm 2 m/s 745 mmHg 63%
    16:00 +30°C° 0,1 mm 2 m/s 746 mmHg 69%
    17:00 +29°C° 0,1 mm 2 m/s 746 mmHg 74%
    18:00 +27°C° 0,1 mm 2 m/s 746 mmHg 79%
    19:00 +27°C° 0,2 mm 2 m/s 747 mmHg 82%
    20:00 +26°C° 0,2 mm 2 m/s 747 mmHg 85%
    21:00 +26°C° 0,2 mm 1 m/s 748 mmHg 88%
    22:00 +25°C° 0,1 mm 1 m/s 748 mmHg 89%
    23:00 +25°C° 0,1 mm 1 m/s 748 mmHg 90%

    Depois de amanhã, 22 Outubro, Domingo

    Tempo Temperatura Precipitação Vento Pressão Humidade
    00:00 +25°C° 0,1 mm 1 m/s 748 mmHg 91%
    01:00 +25°C° 0,1 mm 1 m/s 748 mmHg 91%
    02:00 +25°C° 0,1 mm 1 m/s 748 mmHg 91%
    03:00 +25°C° 0,1 mm 1 m/s 747 mmHg 91%
    04:00 +24°C° 0 mm 1 m/s 748 mmHg 91%
    05:00 +24°C° 0 mm 1 m/s 748 mmHg 91%
    06:00 +24°C° 0 mm 1 m/s 748 mmHg 91%
    07:00 +25°C° 0 mm 1 m/s 748 mmHg 88%
    08:00 +26°C° 0 mm 1 m/s 749 mmHg 85%
    09:00 +27°C° 0 mm 2 m/s 749 mmHg 82%
    10:00 +28°C° 0 mm 2 m/s 749 mmHg 79%
    11:00 +29°C° 0 mm 2 m/s 749 mmHg 75%
    12:00 +30°C° 0 mm 2 m/s 749 mmHg 71%
    13:00 +30°C° 0,1 mm 1 m/s 748 mmHg 70%
    14:00 +31°C° 0,1 mm 1 m/s 748 mmHg 68%
    15:00 +31°C° 0,1 mm 1 m/s 747 mmHg 66%
    16:00 +30°C° 0,2 mm 1 m/s 747 mmHg 70%
    17:00 +29°C° 0,2 mm 1 m/s 747 mmHg 74%
    18:00 +28°C° 0,2 mm 2 m/s 748 mmHg 77%
    19:00 +27°C° 0,1 mm 2 m/s 748 mmHg 80%
    20:00 +26°C° 0,1 mm 2 m/s 749 mmHg 84%
    21:00 +26°C° 0,1 mm 2 m/s 750 mmHg 87%
    22:00 +26°C° 0,2 mm 2 m/s 750 mmHg 88%
    23:00 +25°C° 0,2 mm 2 m/s 750 mmHg 89%

    23 Outubro, Segunda-feira

    Tempo Temperatura Precipitação Vento Pressão Humidade
    00:00 +25°C° 0,2 mm 2 m/s 751 mmHg 90%
    01:00 +25°C° 0,2 mm 2 m/s 750 mmHg 91%
    02:00 +24°C° 0,2 mm 2 m/s 750 mmHg 92%
    03:00 +24°C° 0,2 mm 2 m/s 750 mmHg 93%
    04:00 +24°C° 0,2 mm 2 m/s 750 mmHg 93%
    05:00 +24°C° 0,2 mm 2 m/s 750 mmHg 94%
    06:00 +24°C° 0,2 mm 2 m/s 750 mmHg 94%
    07:00 +25°C° 0,2 mm 2 m/s 751 mmHg 89%
    08:00 +26°C° 0,2 mm 3 m/s 751 mmHg 84%
    09:00 +27°C° 0,2 mm 3 m/s 752 mmHg 79%
    10:00 +28°C° 0,2 mm 3 m/s 752 mmHg 75%
    11:00 +29°C° 0,2 mm 3 m/s 751 mmHg 71%
    12:00 +31°C° 0,2 mm 3 m/s 751 mmHg 66%
    13:00 +31°C° 0,4 mm 2 m/s 750 mmHg 64%
    14:00 +31°C° 0,4 mm 2 m/s 750 mmHg 63%
    15:00 +31°C° 0,4 mm 2 m/s 749 mmHg 61%
    16:00 +30°C° 0,4 mm 1 m/s 750 mmHg 65%
    17:00 +29°C° 0,4 mm 1 m/s 750 mmHg 69%
    18:00 +28°C° 0,4 mm 1 m/s 750 mmHg 72%
    19:00 +27°C° 0,2 mm 1 m/s 751 mmHg 74%
    20:00 +26°C° 0,2 mm 1 m/s 751 mmHg 77%
    21:00 +26°C° 0,2 mm 2 m/s 752 mmHg 79%
    22:00 +25°C° 0,1 mm 2 m/s 752 mmHg 80%
    23:00 +25°C° 0,1 mm 2 m/s 752 mmHg 81%

    24 Outubro, Terça-feira

    Tempo Temperatura Precipitação Vento Pressão Humidade
    00:00 +25°C° 0,1 mm 2 m/s 752 mmHg 82%
    01:00 +24°C° 0 mm 2 m/s 752 mmHg 83%
    02:00 +24°C° 0 mm 2 m/s 752 mmHg 83%
    03:00 +24°C° 0 mm 1 m/s 751 mmHg 84%
    04:00 +24°C° 0 mm 1 m/s 752 mmHg 84%
    05:00 +23°C° 0 mm 1 m/s 752 mmHg 84%
    06:00 +23°C° 0 mm 1 m/s 752 mmHg 84%
    07:00 +25°C° 0 mm 2 m/s 753 mmHg 79%
    08:00 +26°C° 0 mm 2 m/s 753 mmHg 74%
    09:00 +28°C° 0 mm 2 m/s 754 mmHg 69%
    10:00 +29°C° 0,4 mm 2 m/s 753 mmHg 66%
    11:00 +30°C° 0,4 mm 2 m/s 753 mmHg 63%
    12:00 +31°C° 0,4 mm 2 m/s 753 mmHg 59%
    13:00 +31°C° 0,2 mm 1 m/s 752 mmHg 58%
    14:00 +32°C° 0,2 mm 1 m/s 751 mmHg 56%
    15:00 +32°C° 0,2 mm 1 m/s 751 mmHg 54%
    16:00 +30°C° 0,1 mm 1 m/s 751 mmHg 58%
    17:00 +29°C° 0,1 mm 1 m/s 751 mmHg 62%
    18:00 +28°C° 0,1 mm 1 m/s 752 mmHg 66%
    19:00 +27°C° 0 mm 1 m/s 752 mmHg 68%
    20:00 +26°C° 0 mm 2 m/s 753 mmHg 70%
    21:00 +26°C° 0 mm 2 m/s 753 mmHg 72%
    22:00 +25°C° 0 mm 2 m/s 753 mmHg 72%
    23:00 +25°C° 0 mm 2 m/s 753 mmHg 73%

    25 Outubro, Quarta-feira

    Tempo Temperatura Precipitação Vento Pressão Humidade
    00:00 +24°C° 0 mm 2 m/s 754 mmHg 74%
    01:00 +24°C° 0 mm 2 m/s 753 mmHg 73%
    02:00 +23°C° 0 mm 2 m/s 753 mmHg 72%
    03:00 +23°C° 0 mm 2 m/s 753 mmHg 71%
    04:00 +23°C° 0 mm 2 m/s 754 mmHg 71%
    05:00 +23°C° 0 mm 2 m/s 754 mmHg 70%
    06:00 +21°C° 0 mm 2 m/s 754 mmHg 69%
    07:00 +24°C° 0 mm 2 m/s 755 mmHg 64%
    08:00 +26°C° 0 mm 2 m/s 755 mmHg 60%
    09:00 +28°C° 0 mm 1 m/s 756 mmHg 55%
    10:00 +29°C° 0 mm 1 m/s 756 mmHg 53%
    11:00 +30°C° 0 mm 1 m/s 755 mmHg 51%
    12:00 +32°C° 0 mm 1 m/s 755 mmHg 49%
    13:00 +32°C° 0,1 mm 1 m/s 754 mmHg 48%
    14:00 +32°C° 0,1 mm 1 m/s 753 mmHg 47%
    15:00 +32°C° 0,1 mm 1 m/s 753 mmHg 47%
    16:00 +30°C° 0 mm 1 m/s 753 mmHg 51%
    17:00 +29°C° 0 mm 1 m/s 753 mmHg 56%
    18:00 +27°C° 0 mm 1 m/s 753 mmHg 60%
    19:00 +26°C° 0 mm 1 m/s 753 mmHg 62%
    20:00 +26°C° 0 mm 2 m/s 754 mmHg 63%
    21:00 +25°C° 0 mm 2 m/s 754 mmHg 64%
    22:00 +25°C° 0 mm 2 m/s 754 mmHg 64%
    23:00 +24°C° 0 mm 2 m/s 754 mmHg 64%
    Mostrar mais